INMARSAT 5-F2 (40384 NORAD) Tracking and Keplerian Element Data

This shows tracking and keplerian element data for the satellite.

Feedback or suggestion? Click here.




ElementValue
Catalog40384
NameINMARSAT 5-F2
Epoch Orbit1893
Epoch Day92.00813255
Epoch Year2020
RAAN180.746
Inclination0.0203
Eccentricity1.17E-05
Argument of Perigee236.6272
Mean Anonmoly80.3795
Mean Motion1.0026885
Decay Rate-2.89E-06
L11 40384U 15005A 20092.00813255 -.00000289 00000-0 00000+0 0 9996
L22 40384 0.0203 180.7460 0000117 236.6272 80.3795 1.00268850 18932

Live tracking and technical data element details for INMARSAT 5-F2 (NORAD 40384). INMARSAT 5-F2 can be tracked NOW for your location showing map with azimuth and elevation plus other details from your city location.

Track the satellite on the map from your city or location and see movement details for azimuth, elevation, latitude, longitude, range, height, and movement on the map or in text.







IsCatalogInMostPopularTable: catalog: 40384, numindb: 390
Update: records affected: 1



GetName: 40384 INMARSAT 5-F2

Hit Count: updated at: Thu, 02 Apr 2020 04:32:12 GMT